Terminal Aerodrome Forecast
Issued by NWS Cleveland, OH

Home | Current Version | Previous Version | Text Only | Print | Product List | Glossary On
Versions: 1 2 3 4 5 6 7 8 9 10 11 12 13 14 15 16 17 18 19 20 21
000
FTUS41 KCLE 242300
TAFERI
TAF
KERI 242329Z 2500/2524 01005KT P6SM SKC
     FM250400 14004KT P6SM SKC
     FM251400 22006KT P6SM FEW040
     FM251800 29008KT P6SM SCT040=

USA.gov is the U.S. government's official web portal to all federal, state and local government web resources and services.